This demonstration page uses our WeatherBlox Daily Observations layout. Learn more.

Left ArrowRight Arrow

Hourly Observations for July 30, 2022

Temp ( °F °C ) Dew Point ( °F °C ) Humidity (%) Winds ( mph kmh ) Pressure ( in mb ) Visibility ( mi km ) Precip ( " mm )
12:53 am 00:53 Mostly Clear 57 13.9 52 11.1 83 83 SE 3 6 30.05 1018 10 16 0.00 0.00
1:53 am 01:53 Clear 57 13.9 51 10.6 81 81 Calm 30.04 1017 10 16 0.00 0.00
2:53 am 02:53 Clear 55 12.8 49 9.4 80 80 ESE 3 6 30.04 1017 10 16 0.00 0.00
3:53 am 03:53 Clear 55 12.8 48 8.9 77 77 E 5 7 30.04 1017 10 16 0.00 0.00
4:53 am 04:53 Clear 53 11.7 48 8.9 83 83 ESE 5 7 30.05 1018 10 16 0.00 0.00
5:53 am 05:53 Clear 53 11.7 47 8.3 80 80 Calm 30.06 1018 10 16 0.00 0.00
6:53 am 06:53 Sunny 56 13.3 47 8.3 72 72 ENE 5 7 30.10 1019 10 16 0.00 0.00
7:53 am 07:53 Sunny 59 15 49 9.4 69 69 Calm 30.11 1020 10 16 0.00 0.00
8:53 am 08:53 Sunny 68 20 49 9.4 51 51 NE 7 11 30.09 1019 10 16 0.00 0.00
9:53 am 09:53 Sunny 74 23.3 51 10.6 45 45 NNE 5 7 30.07 1018 10 16 0.00 0.00
10:53 am 10:53 Sunny 78 25.6 51 10.6 39 39 Calm 30.06 1018 10 16 0.00 0.00
11:53 am 11:53 Sunny 80 26.7 53 11.7 39 39 VRB 3 6 30.05 1018 10 16 0.00 0.00
12:53 pm 12:53 Sunny 83 28.3 49 9.4 31 31 VRB 3 6 30.03 1017 10 16 0.00 0.00
1:53 pm 13:53 Sunny 85 29.4 46 7.8 26 26 N 5 7 29.99 1016 10 16 0.00 0.00
2:53 pm 14:53 Sunny 87 30.6 43 6.1 21 21 W 7 11 29.98 1015 10 16 0.00 0.00
3:53 pm 15:53 Sunny 85 29.4 42 5.6 22 22 Calm 29.97 1015 10 16 0.00 0.00
4:53 pm 16:53 Sunny 83 28.3 50 10 32 32 S 18 30 29.98 1015 10 16 0.00 0.00
5:53 pm 17:53 Sunny 83 28.3 49 9.4 31 31 SW 16 26 29.98 1015 10 16 0.00 0.00
6:53 pm 18:53 Sunny 78 25.6 48 8.9 35 35 WSW 13 20 30.00 1016 10 16 0.00 0.00
7:53 pm 19:53 Sunny 75 23.9 46 7.8 36 36 SSW 9 15 30.01 1016 10 16 0.00 0.00
8:53 pm 20:53 Clear 69 20.6 49 9.4 49 49 Calm 30.02 1017 10 16 0.00 0.00
9:53 pm 21:53 Clear 67 19.4 50 10 55 55 NNE 6 9 30.04 1017 10 16 0.00 0.00
10:53 pm 22:53 Clear 62 16.7 52 11.1 70 70 SE 3 6 30.08 1019 10 16 0.00 0.00
11:53 pm 23:53 Clear 60 15.6 52 11.1 75 75 N 6 9 30.09 1019 10 16 0.00 0.00

Powered by AerisWeather